TimeCST,TemperatureF,Dew PointF,Humidity,Sea Level PressureIn,VisibilityMPH,Wind Direction,Wind SpeedMPH,Gust SpeedMPH,PrecipitationIn,Events,Conditions,WindDirDegrees,DateUTC
12:15 AM,30.7,30.6,99,30.45,10.0,Calm,Calm,-,N/A,,Clear,0,2012-11-13 06:15:00
12:35 AM,30.0,30.0,100,30.45,10.0,Calm,Calm,-,N/A,,Clear,0,2012-11-13 06:35:00
12:55 AM,29.3,29.3,100,30.45,10.0,Calm,Calm,-,N/A,,Clear,0,2012-11-13 06:55:00
1:15 AM,28.9,28.9,100,30.45,10.0,Calm,Calm,-,N/A,,Clear,0,2012-11-13 07:15:00
1:35 AM,28.8,28.8,100,30.46,10.0,Calm,Calm,-,N/A,,Clear,0,2012-11-13 07:35:00
1:55 AM,29.3,29.3,100,30.46,10.0,Calm,Calm,-,N/A,,Clear,0,2012-11-13 07:55:00
2:15 AM,29.7,29.7,100,30.46,10.0,Calm,Calm,-,N/A,,Clear,0,2012-11-13 08:15:00
2:35 AM,28.2,28.2,100,30.46,10.0,Calm,Calm,-,N/A,,Clear,0,2012-11-13 08:35:00
2:55 AM,28.4,28.4,100,30.46,10.0,Calm,Calm,-,N/A,,Clear,0,2012-11-13 08:55:00
3:15 AM,27.5,27.5,100,30.46,10.0,Calm,Calm,-,N/A,,Clear,0,2012-11-13 09:15:00
3:35 AM,27.9,27.9,100,30.46,7.0,Calm,Calm,-,N/A,,Clear,0,2012-11-13 09:35:00
3:55 AM,28.4,28.4,100,30.47,10.0,Calm,Calm,-,N/A,,Clear,0,2012-11-13 09:55:00
4:15 AM,27.7,27.7,100,30.48,10.0,Calm,Calm,-,N/A,,Clear,0,2012-11-13 10:15:00
4:35 AM,28.0,28.0,100,30.48,10.0,Calm,Calm,-,N/A,,Clear,0,2012-11-13 10:35:00
4:55 AM,27.9,27.9,100,30.49,10.0,Calm,Calm,-,N/A,,Clear,0,2012-11-13 10:55:00
5:15 AM,27.9,27.9,100,30.49,10.0,Calm,Calm,-,N/A,,Clear,0,2012-11-13 11:15:00
5:35 AM,26.4,26.4,100,30.49,10.0,Calm,Calm,-,N/A,,Clear,0,2012-11-13 11:35:00
5:55 AM,25.9,25.9,100,30.50,10.0,Calm,Calm,-,N/A,,Clear,0,2012-11-13 11:55:00
6:15 AM,26.8,26.8,100,30.51,10.0,Calm,Calm,-,N/A,,Clear,0,2012-11-13 12:15:00
6:35 AM,26.4,26.4,100,30.51,10.0,Calm,Calm,-,N/A,,Clear,0,2012-11-13 12:35:00
6:55 AM,27.5,27.5,100,30.52,10.0,Calm,Calm,-,N/A,,Clear,0,2012-11-13 12:55:00
7:15 AM,27.9,27.9,100,30.52,10.0,Calm,Calm,-,N/A,,Clear,0,2012-11-13 13:15:00
7:35 AM,30.4,30.4,100,30.54,10.0,Calm,Calm,-,N/A,,Clear,0,2012-11-13 13:35:00
7:55 AM,32.0,32.0,100,30.54,10.0,Calm,Calm,-,N/A,,Clear,0,2012-11-13 13:55:00
8:15 AM,34.7,31.8,89,30.54,10.0,Calm,Calm,-,N/A,,Clear,0,2012-11-13 14:15:00
8:35 AM,36.9,29.3,74,30.54,7.0,Calm,Calm,-,N/A,,Clear,0,2012-11-13 14:35:00
8:55 AM,39.6,29.7,68,30.54,7.0,NNE,3.5,-,N/A,,Clear,20,2012-11-13 14:55:00
9:15 AM,41.0,29.3,63,30.54,10.0,Calm,Calm,-,N/A,,Clear,0,2012-11-13 15:15:00
9:35 AM,42.4,28.2,57,30.54,10.0,North,3.5,-,N/A,,Clear,360,2012-11-13 15:35:00
9:55 AM,43.5,28.4,55,30.54,10.0,North,3.5,-,N/A,,Clear,10,2012-11-13 15:55:00
10:15 AM,43.9,26.8,51,30.53,10.0,Calm,Calm,-,N/A,,Clear,0,2012-11-13 16:15:00
10:35 AM,44.8,26.1,48,30.53,10.0,Calm,Calm,-,N/A,,Clear,0,2012-11-13 16:35:00
10:55 AM,46.0,23.7,42,30.52,10.0,North,5.8,-,N/A,,Clear,360,2012-11-13 16:55:00
11:15 AM,46.0,22.5,39,30.51,10.0,Calm,Calm,-,N/A,,Clear,0,2012-11-13 17:15:00
11:35 AM,47.1,23.4,39,30.50,10.0,North,5.8,-,N/A,,Clear,360,2012-11-13 17:35:00
11:55 AM,46.9,23.7,40,30.49,10.0,NE,3.5,-,N/A,,Clear,50,2012-11-13 17:55:00
12:15 PM,47.3,24.4,41,30.48,10.0,NW,4.6,-,N/A,,Clear,310,2012-11-13 18:15:00
12:35 PM,48.0,23.4,38,30.48,10.0,Calm,Calm,-,N/A,,Clear,0,2012-11-13 18:35:00
12:55 PM,48.6,23.0,37,30.46,10.0,WNW,5.8,-,N/A,,Clear,300,2012-11-13 18:55:00
1:35 PM,48.7,21.9,35,30.45,10.0,North,5.8,-,N/A,,Clear,360,2012-11-13 19:35:00
1:55 PM,49.5,21.9,34,30.44,10.0,North,5.8,-,N/A,,Clear,350,2012-11-13 19:55:00
2:15 PM,49.6,21.6,33,30.44,10.0,Calm,Calm,-,N/A,,Clear,0,2012-11-13 20:15:00
2:35 PM,49.8,21.0,32,30.44,10.0,East,3.5,-,N/A,,Clear,90,2012-11-13 20:35:00
2:55 PM,49.8,20.3,31,30.44,10.0,Calm,Calm,-,N/A,,Clear,0,2012-11-13 20:55:00
3:15 PM,49.6,21.7,33,30.44,10.0,Calm,Calm,-,N/A,,Clear,0,2012-11-13 21:15:00
3:35 PM,49.1,20.1,32,30.44,10.0,NNE,3.5,-,N/A,,Clear,30,2012-11-13 21:35:00
3:55 PM,48.4,20.3,33,30.44,10.0,NNE,3.5,-,N/A,,Clear,20,2012-11-13 21:55:00
4:15 PM,47.3,21.9,37,30.45,10.0,NNE,3.5,-,N/A,,Clear,20,2012-11-13 22:15:00
4:35 PM,45.3,22.1,40,30.44,10.0,NNE,5.8,-,N/A,,Clear,30,2012-11-13 22:35:00
4:55 PM,44.1,22.5,42,30.44,10.0,NNE,4.6,-,N/A,,Clear,30,2012-11-13 22:55:00
5:15 PM,43.0,22.1,44,30.44,10.0,NNE,4.6,-,N/A,,Clear,30,2012-11-13 23:15:00
5:35 PM,42.3,21.9,44,30.44,10.0,NE,4.6,-,N/A,,Clear,40,2012-11-13 23:35:00
5:55 PM,41.2,22.1,47,30.45,10.0,NE,4.6,-,N/A,,Clear,50,2012-11-13 23:55:00
6:15 PM,41.0,22.1,47,30.45,10.0,Calm,Calm,-,N/A,,Clear,0,2012-11-14 00:15:00
6:35 PM,39.9,23.4,52,30.45,10.0,Calm,Calm,-,N/A,,Clear,0,2012-11-14 00:35:00
6:55 PM,39.7,23.0,51,30.45,10.0,Calm,Calm,-,N/A,,Clear,0,2012-11-14 00:55:00
7:15 PM,38.5,23.5,55,30.46,10.0,Calm,Calm,-,N/A,,Clear,0,2012-11-14 01:15:00
7:35 PM,36.5,25.2,64,30.47,10.0,Calm,Calm,-,N/A,,Clear,0,2012-11-14 01:35:00
7:55 PM,36.1,26.2,67,30.46,10.0,Calm,Calm,-,N/A,,Clear,0,2012-11-14 01:55:00
8:15 PM,36.3,26.2,67,30.47,10.0,Calm,Calm,-,N/A,,Clear,0,2012-11-14 02:15:00
8:35 PM,36.1,26.2,67,30.47,7.0,Calm,Calm,-,N/A,,Clear,0,2012-11-14 02:35:00
8:55 PM,36.0,26.6,69,30.47,2.5,NNE,4.6,-,N/A,,Clear,30,2012-11-14 02:55:00
9:15 PM,37.4,25.5,62,30.47,7.0,NNE,3.5,-,N/A,,Clear,20,2012-11-14 03:15:00
9:35 PM,36.7,25.5,64,30.47,10.0,Calm,Calm,-,N/A,,Clear,0,2012-11-14 03:35:00
9:55 PM,36.5,25.9,65,30.47,10.0,Calm,Calm,-,N/A,,Clear,0,2012-11-14 03:55:00
10:15 PM,36.9,25.3,63,30.47,10.0,Calm,Calm,-,N/A,,Clear,0,2012-11-14 04:15:00
10:35 PM,36.0,26.1,67,30.47,10.0,Calm,Calm,-,N/A,,Clear,0,2012-11-14 04:35:00
10:55 PM,35.4,26.2,69,30.47,10.0,Calm,Calm,-,N/A,,Clear,0,2012-11-14 04:55:00
11:15 PM,34.9,25.9,70,30.47,10.0,Calm,Calm,-,N/A,,Clear,0,2012-11-14 05:15:00
11:35 PM,33.6,26.6,75,30.46,10.0,Calm,Calm,-,N/A,,Clear,0,2012-11-14 05:35:00
11:55 PM,34.0,26.1,73,30.45,10.0,Calm,Calm,-,N/A,,Clear,0,2012-11-14 05:55:00